CW8553 Weather Reports


time (UTC)temp
F
wind
direction
speed
knots
gust
knots
rain 1hr
in
rain 24hr
in
rain mn
in
humidity
%
barometer
mb
20260503223036 80 0 0.0 0.0 0.00 0.00 0.00 44 1011.0
20260503221551 79 0 0.0 0.0 0.00 0.00 0.00 44 1011.2
20260503220040 78 0 0.0 0.0 0.00 0.00 0.00 46 1011.3
20260503214541 78 0 0.0 0.0 0.00 0.00 0.00 45 1011.5
20260503213043 78 0 0.0 0.0 0.00 0.00 0.00 46 1011.5
20260503211535 77 0 0.0 0.0 0.00 0.00 0.00 48 1011.8
20260503210041 78 0 0.0 0.0 0.00 0.00 0.00 45 1011.9
20260503204541 77 0 0.0 0.0 0.00 0.00 0.00 47 1012.0
20260503203041 78 0 0.0 0.0 0.00 0.00 0.00 49 1012.1
20260503201537 76 0 0.0 0.0 0.00 0.00 0.00 50 1012.3
20260503200037 76 0 0.0 0.0 0.00 0.00 0.00 51 1012.3
20260503194543 74 0 0.0 0.0 0.00 0.00 0.00 53 1012.5
20260503193046 74 0 0.0 0.0 0.00 0.00 0.00 52 1012.7
20260503191603 74 0 0.0 0.0 0.00 0.00 0.00 54 1012.8
20260503190038 75 0 0.0 0.0 0.00 0.00 0.00 54 1013.1
20260503184537 74 0 0.0 0.0 0.00 0.00 0.00 53 1013.2
20260503183040 74 0 0.0 0.0 0.00 0.00 0.00 53 1013.5
20260503181547 73 0 0.0 0.0 0.00 0.00 0.00 56 1013.5
20260503180041 72 0 0.0 0.0 0.00 0.00 0.00 57 1013.7
20260503174545 72 0 0.0 0.0 0.00 0.00 0.00 56 1013.8
20260503173038 72 0 0.0 0.0 0.00 0.00 0.00 60 1013.9
20260503171539 71 0 0.0 0.0 0.00 0.00 0.00 59 1013.9
20260503081540 59 0 0.0 0.0 0.00 0.00 0.00 65 1014.5
20260503071537 63 0 0.0 0.0 0.00 0.00 0.00 58 1014.5
20260503054556 62 0 0.0 0.0 0.00 0.00 0.00 61 1014.1
20260503053036 62 0 0.0 0.0 0.00 0.00 0.00 64 1014.2
20260503051535 62 0 0.0 0.0 0.00 0.00 0.00 65 1014.1
20260503050040 63 0 0.0 0.0 0.00 0.00 0.00 65 1014.0
20260503044542 64 0 0.0 0.0 0.00 0.00 0.00 63 1014.1
20260503043048 64 0 0.0 0.0 0.00 0.00 0.00 64 1013.8
20260503041537 65 0 0.0 0.0 0.00 0.00 0.00 63 1013.7
20260503040036 66 0 0.0 0.0 0.00 0.00 0.00 62 1013.5
20260503034545 66 0 0.0 0.0 0.00 0.00 0.00 60 1013.2
20260503033038 67 0 0.0 0.0 0.00 0.00 0.00 60 1013.0
20260503031537 68 0 0.0 0.0 0.00 0.00 0.00 59 1012.9
20260503030038 69 0 0.0 0.0 0.00 0.00 0.00 59 1012.8
20260503024540 69 0 0.0 0.0 0.00 0.00 0.00 58 1012.6
20260503023043 70 0 0.0 0.0 0.00 0.00 0.00 57 1012.4
20260503021537 71 0 0.0 0.0 0.00 0.00 0.00 55 1012.3
20260503020047 71 0 0.0 0.0 0.00 0.00 0.00 56 1012.4
20260503014537 72 0 0.0 0.0 0.00 0.00 0.00 55 1012.5
20260503013041 72 0 0.0 0.0 0.00 0.00 0.00 54 1012.6
20260503011542 73 0 0.0 0.0 0.00 0.00 0.00 53 1012.8
20260503010038 73 0 0.0 0.0 0.00 0.00 0.00 52 1012.7
20260503004540 72 0 0.0 0.0 0.00 0.00 0.00 52 1012.8
20260503003046 73 0 0.0 0.0 0.00 0.00 0.00 53 1012.9
20260503001546 72 0 0.0 0.0 0.00 0.00 0.00 53 1012.9
20260503000043 72 0 0.0 0.0 0.00 0.00 0.00 52 1013.1
20260502234549 73 0 0.0 0.0 0.00 0.00 0.00 53 1013.3
20260502233041 74 0 0.0 0.0 0.00 0.00 0.00 50 1013.5
20260502231542 73 0 0.0 0.0 0.00 0.00 0.00 49 1013.7
20260502230041 73 0 0.0 0.0 0.00 0.00 0.00 49 1013.9
20260502224544 73 0 0.0 0.0 0.00 0.00 0.00 52 1014.3